x

South Brooks (46132) Wave Buoy

11:00 - Tue 28th Mar 2017 All times are PDT. -7 hours from GMT.

  • Sig Wave height 12.5ft
  • Peak Period 17s
  • Wind
  • Sea Temp 48°f
  • Aire Temp 46°f
  • Sea Pressure 1014.2mb
  • South Brooks
  • South Brooks

More Historic Weather Station data

Upgrade to MSW Pro to gain access to the past 30 days of data for over 8000 Wavebouys and Weather Stations around the globe.

Join Pro

Comparision Forecast

View Surf forecast
   
mar 03/28 11:00 12.5ft 17s  -  4 mph 1014.2mb 48f 46f
10:00 10ft 15s  -  7 mph 1014.8mb 47f 47f
9:00 11ft 15s  -  4 mph 1015.6mb 47f 46f
8:00 11.5ft 17s  -  2 mph 1015.9mb 47f 45f
7:00 11.5ft 18s  -  4 mph 1016.5mb 47f 46f
6:00 12ft 14s  -  4 mph 1016.3mb 47f 47f
5:00 12ft 16s  -  7 mph 1016.5mb 47f 47f
4:00 13ft 16s 2 7 mph 1016mb 48f 47f
3:00 12ft 16s  -  2 mph 1016mb 47f 45f
2:00 12ft 16s 2 7 mph 1015.6mb 47f 47f
1:00 13ft 16s 4 9 mph 1015.5mb 47f 46f
12:00 11.5ft 16s  -  7 mph 1015mb 47f 46f
11:00 12.5ft 16s 4 11 mph 1014.5mb 47f 46f
10:00 13ft 11s 2 9 mph 1013.8mb 47f 46f
9:00 13ft 17s 2 13 mph 1013.6mb 47f 47f
8:00 12ft 17s 2 11 mph 1012.7mb 47f 46f
7:00 12.5ft 18s 2 13 mph 1012.2mb 47f 47f
6:00 11.5ft 12s 2 13 mph 1011.8mb 47f 47f
5:00 12ft 18s 2 13 mph 1011.3mb 47f 48f
4:00 13.5ft 18s 4 18 mph 1010.6mb 47f 47f
3:00 12.5ft 17s 7 20 mph 1010.7mb 47f 47f
2:00 13.5ft 17s 9 25 mph 1010.6mb 47f 47f
1:00 13.5ft 17s 9 25 mph 1010.9mb 47f 47f
12:00 13.5ft 17s 11 25 mph 1011.1mb 47f 47f
lun 03/27 11:00 14ft 17s 7 22 mph 1011.8mb 47f 47f
10:00 13ft 17s 7 22 mph 1012.1mb 47f 47f
9:00 13.5ft 12s 9 25 mph 1012.3mb 47f 47f
8:00 14ft 11s 18 31 mph 1012.7mb 47f 46f
7:00 13.5ft 11s 16 31 mph 1013mb 47f 46f
6:00 12ft 12s 13 27 mph 1014mb 47f 46f
5:00 12ft 8s 9 25 mph 1014.8mb 47f 46f
4:00 12ft 12s 7 22 mph 1014.9mb 47f 45f
3:00 13ft 10s 2 16 mph 1015mb 47f 46f
2:00 11.5ft 10s 2 11 mph 1014.7mb 47f 45f
1:00 12ft 10s 4 16 mph 1014.3mb 47f 46f
12:00 12ft 12s 4 16 mph 1013.5mb 47f 46f
11:00 12.5ft 10s 2 11 mph 1012.2mb 47f 46f
10:00 11ft 12s 2 7 mph 1011.1mb 47f 46f
9:00 10ft 18s 4 11 mph 1010mb 47f 47f
8:00 10ft 20s 2 11 mph 1009.3mb 47f 47f
7:00 9ft 9s 4 11 mph 1008.7mb 47f 47f
6:00 9.5ft 20s 2 9 mph 1007.5mb 47f 45f
5:00 9ft 9s 2 11 mph 1007.2mb 47f 47f
4:00 10.5ft 10s 7 20 mph 1006mb 47f 45f
3:00 11ft 9s 7 20 mph 1005.3mb 47f 47f
2:00 10ft 9s 9 20 mph 1004.8mb 47f 47f
1:00 11ft 8s 7 20 mph 1004mb 47f 46f
12:00 10ft 8s 7 20 mph 1003.7mb 47f 45f
dom 03/26 11:00 10.5ft 9s 11 22 mph 1003mb 47f 47f
10:00 9.5ft 8s 9 20 mph 1002.7mb 47f 48f
9:00 11ft 9s 7 20 mph 1002.5mb 47f 47f
8:00 11ft 10s 4 18 mph 1002.2mb 47f 47f
7:00 12ft 9s 4 16 mph 1001.7mb 47f 47f
6:00 12ft 9s 4 13 mph 1001.4mb 47f 47f
5:00 13ft 9s 9 22 mph 1001mb 47f 47f
4:00 15ft 9s 11 22 mph 1000.3mb 47f 47f
3:00 15.5ft 9s 9 22 mph 999.6mb 47f 47f
2:00 16.5ft 10s 7 18 mph 999.4mb 47f 47f
1:00 19.5ft 10s 36 45 mph 998.2mb 47f 45f
12:00 20.5ft 10s 36 47 mph 997.8mb 47f 45f
11:00 20ft 9s 43 54 mph 997.2mb 47f 45f
10:00 18ft 9s 43 51 mph 997.3mb 48f 45f
9:00 16.5ft 8s 38 49 mph 997.9mb 49f 45f
8:00 16.5ft 8s 36 47 mph 998.4mb 48f 45f
7:00 15ft 8s 40 49 mph 999.3mb 48f 45f
6:00 12.5ft 8s 31 40 mph 1000.7mb 48f 45f
5:00 11ft 7s 27 36 mph 1002.1mb 48f 44f
4:00 10ft 7s 25 36 mph 1003.7mb 49f 45f
3:00 10ft 6s 18 29 mph 1005.7mb 48f 44f
2:00 9ft 6s 22 31 mph 1006.9mb 48f 44f
1:00 9ft 6s 25 36 mph 1008mb 48f 46f
12:00 9ft 5s 25 38 mph 1009.4mb 48f 45f
sáb 03/25 11:00 9ft 9s 16 27 mph 1010.7mb 48f 46f
10:00 8ft 9s 18 34 mph 1011.4mb 48f 45f
9:00 8ft 13s 18 27 mph 1012.3mb 48f 46f
8:00 9ft 9s 16 27 mph 1013.2mb 48f 45f
7:00 9ft 10s 9 22 mph 1014mb 48f 45f
6:00 9.5ft 9s 9 20 mph 1015mb 48f 45f
5:00 9ft 10s 9 20 mph 1015.5mb 48f 45f
4:00 10ft 10s 2 9 mph 1016.5mb 48f 43f
3:00 10.5ft 9s 7 16 mph 1016.8mb 48f 45f
2:00 10ft 10s 4 13 mph 1017.2mb 48f 44f
1:00 11ft 10s 9 18 mph 1017.3mb 48f 44f
12:00 11ft 11s 7 16 mph 1017.1mb 48f 44f
11:00 11ft 10s 7 18 mph 1016.8mb 48f 43f
10:00 10.5ft 10s 4 7 mph 1016.7mb 48f 44f
9:00 11ft 10s 4 7 mph 1016.4mb 48f 44f
8:00 11.5ft 10s 4 13 mph 1015.9mb 47f 43f